Regional Weather Roundup
Issued by NWS

Home | Current Version | Previous Version | Graphics & Text | Print | Product List | Glossary On
Versions: 1 2 3 4 5 6 7 8 9 10 11 12 13 14 15 16 17 18 19 20 21 22 23 24 25 26 27 28 29 30 31 32 33 34 35 36 37 38 39 40 41 42 43 44 45 46 47 48 49 50
000
ASUS43 KMKX 241200
RWRWI

WISCONSIN REGIONAL WEATHER ROUNDUP
NATIONAL WEATHER SERVICE MILWAUKEE/SULLIVAN WI
600 AM CST FRI NOV 24 2017

NOTE: "FAIR" INDICATES FEW OR NO CLOUDS BELOW 12,000 FEET WITH NO
SIGNIFICANT WEATHER AND/OR OBSTRUCTIONS TO VISIBILITY.

WIZ001-002-006>008-014>016-023>028-241300-
NORTHWEST WISCONSIN

CITY           SKY/WX    TMP DP  RH WIND       PRES   REMARKS
SUPERIOR ARPT  CLOUDY    43  35  73 SW7       29.30F
6HR MIN TEMP:  39; 6HR MAX TEMP:  43;

ASHLAND        MOCLDY    44  32  62 S14G22    29.31F
6HR MIN TEMP:  42; 6HR MAX TEMP:  45;

HAYWARD        PTCLDY    40  32  73 SW7       29.38F
6HR MIN TEMP:  39; 6HR MAX TEMP:  43;

SIREN          CLEAR     43  34  70 S6        29.37F
CUMBERLAND     CLEAR     39  32  75 SW6       29.40F WCI  35
RICE LAKE      CLEAR     40  33  78 SE8       29.42F WCI  34
CHETEK         CLEAR     41  35  76 S7        29.42F
LADYSMITH      CLEAR     37  31  79 SE6       29.43F WCI  32
6HR MIN TEMP:  37; 6HR MAX TEMP:  40;

EAU CLAIRE     NOT AVBL
MENOMONIE      CLOUDY    43  34  70 SE5       29.45F
NEW RICHMOND   CLEAR     43  34  71 S9        29.41F
OSCEOLA        CLEAR     44  36  72 S10G16    29.41F
$$

WIZ003>005-009-010-017-018-241300-
NORTH CENTRAL WISCONSIN

CITY           SKY/WX    TMP DP  RH WIND       PRES   REMARKS
MANITOWISH WTR PTCLDY    39  32  76 S7        29.39F WCI  34
ARBOR VITAE    CLEAR     39  32  74 SW8       29.41F WCI  34
WOODRUFF       CLEAR     39  32  74 SW8       29.41F WCI  34
RHINELANDER    CLEAR     38  30  73 SW13      29.44F WCI  30
6HR MIN TEMP:  36; 6HR MAX TEMP:  39;

EAGLE RIVER    CLEAR     38  28  69 SW7       29.41F WCI  32
6HR MIN TEMP:  36; 6HR MAX TEMP:  40;

LAND O LAKES   CLOUDY    38  30  72 S8        29.41F WCI  32
PHILLIPS       CLEAR     41  33  72 S10G17    29.41F
6HR MIN TEMP:  36; 6HR MAX TEMP:  42;

TOMAHAWK       CLOUDY    38  30  72 CALM      29.46F
MEDFORD        PTCLDY    40  31  70 S12       29.46F WCI  33
MERRILL        CLOUDY    40  30  69 SW6       29.48F
6HR MIN TEMP:  37; 6HR MAX TEMP:  40;

$$

WIZ029-030-035-036-043>047-241300-
CENTRAL WISCONSIN

CITY           SKY/WX    TMP DP  RH WIND       PRES   REMARKS
WAUSAU         CLOUDY    40  30  67 SE6       29.48F
6HR MIN TEMP:  34; 6HR MAX TEMP:  40;

MOSINEE        PTCLDY    41  30  65 S14       29.50F
MARSHFIELD     CLOUDY    42  31  64 S12       29.48F
6HR MIN TEMP:  35; 6HR MAX TEMP:  42;

STEVENS POINT  CLOUDY    41  30  65 SW8G17    29.53F
WAUPACA        PTCLDY    44  30  59 S10G18    29.56F
WAUTOMA        PTCLDY    39  29  67 S7        29.58F WCI  34
6HR MIN TEMP:  31; 6HR MAX TEMP:  40;

WISC RAPIDS    CLEAR     44  32  62 SW14      29.54F
6HR MIN TEMP:  35; 6HR MAX TEMP:  44;

CAMP DOUGLAS   PTCLDY    45  33  62 SE5       29.54F
6HR MIN TEMP:  40; 6HR MAX TEMP:  47;

$$

WIZ011>013-019>022-031-037>040-048>050-241300-
NORTHEAST WISCONSIN

CITY           SKY/WX    TMP DP  RH WIND       PRES   REMARKS
ANTIGO         PTCLDY    39  30  70 SW14      29.49F WCI  30
SHAWANO        CLOUDY    42  30  61 SW8       29.52F
6HR MIN TEMP:  37; 6HR MAX TEMP:  42;

OCONTO         PTCLDY    43  29  59 SW12      29.52F
STURGEON BAY   CLOUDY    40  29  64 S10       29.53F WCI  33
6HR MIN TEMP:  35; 6HR MAX TEMP:  40; 6HR PCP: TRACE;

GREEN BAY      PTCLDY    41  32  70 SW12      29.55F
6HR MIN TEMP:  36; 6HR MAX TEMP:  41;

MANITOWOC      PTCLDY    40  30  67 S9        29.59F WCI  34
6HR MIN TEMP:  33; 6HR MAX TEMP:  40; 6HR PCP: TRACE;

APPLETON       MOCLDY    39  27  60 SW18G24   29.55F WCI  30
CLINTONVILLE   PTCLDY    41  28  60 SW10      29.54F
OSHKOSH        MOCLDY    41  30  65 SW20      29.57F
6HR MIN TEMP:  34; 6HR MAX TEMP:  42;

$$

WIZ032>034-041-042-053>061-241300-
SOUTHWEST WISCONSIN

CITY           SKY/WX    TMP DP  RH WIND       PRES   REMARKS
LA CROSSE      CLEAR     45  34  65 S13       29.53F
6HR MIN TEMP:  41; 6HR MAX TEMP:  45;

SPARTA         CLEAR     42  34  73 S7        29.56F
VIROQUA        CLEAR     42  34  73 S6        29.56F
6HR MIN TEMP:  38; 6HR MAX TEMP:  44;

BOSCOBEL       CLEAR     38  31  76 SW6       29.61F WCI  33
6HR MIN TEMP:  26; 6HR MAX TEMP:  40;

PRAIRIE DU CHI CLEAR     45  32  59 E3        29.60F
PLATTEVILLE    CLEAR     36  32  86 S9        29.65F WCI  29
$$

WIZ056-057-062-063-064-067-068-241300-
SOUTH CENTRAL WISCONSIN

CITY           SKY/WX    TMP DP  RH WIND       PRES   REMARKS
REEDSBURG      CLEAR     42  32  66 SW9       29.59F
BARABOO/DELLS  CLEAR     44  30  59 S14       29.59F
LONE ROCK      NOT AVBL
MINERAL POINT  CLEAR     41  32  70 S12G17    29.64F
MADISON        PTCLDY    39  30  70 S9G21     29.65F WCI  33
6HR MIN TEMP:  33; 6HR MAX TEMP:  40;

MIDDLETON      CLEAR     41  31  68 S9        29.65F
WATERTOWN      CLEAR     37  31  77 S9        29.67F WCI  31
MONROE         CLEAR     36  30  80 S20G25    29.66F WCI  25
JANESVILLE     CLOUDY    37  30  75 S8        29.70F WCI  31
$$

WIZ051-052-058>065-066-070>072-241300-
SOUTHEAST WISCONSIN

CITY           SKY/WX    TMP DP  RH WIND       PRES   REMARKS
MILWAUKEE      CLOUDY    42  30  62 SW16      29.69F
6HR MIN TEMP:  35; 6HR MAX TEMP:  42;

WAUKESHA       CLEAR     39  28  65 SW12G17   29.69F WCI  32
MILWAUKEE/TIMM CLOUDY    41  28  60 SW10      29.69F
RACINE         PTCLDY    39  29  67 SW12      29.72F WCI  32
6HR MIN TEMP:  34; 6HR MAX TEMP:  39;

BURLINGTON     CLEAR     41  35  78 S10       29.70F
KENOSHA        PTCLDY    39  28  64 SW12      29.71F WCI  32
6HR MIN TEMP:  32; 6HR MAX TEMP:  39;

FOND DU LAC    PTCLDY    42  28  57 SW20G30   29.60F
6HR MIN TEMP:  36; 6HR MAX TEMP:  42;

SHEBOYGAN      CLOUDY    44  32  62 S15       29.62F
6HR MIN TEMP:  31; 6HR MAX TEMP:  44;

WEST BEND      MOCLDY    43  30  61 SW12      29.65F
JUNEAU         CLOUDY    37  29  74 S12       29.66F WCI  29
$$

LSZ147-162-241300-
LAKE SUPERIOR

STATION/POSITION TIME  TEMP    WIND        PRES    WAVE
                       AIR SEA DIR/SP/G            HT/PER
                 (UTC) (F)     (DEG/KT/KT) (MB)    (FT/S)
DEVILS ISLAND    1100   43     250/ 15/ 18  992.2F
SAXON HARBOR     1140   48     190/ 11/ 17  992.2F
$$

LMZ867-665-643>646-241300-
LAKE MICHIGAN

STATION/POSITION TIME  TEMP    WIND        PRES    WAVE
                       AIR SEA DIR/SP/G            HT/PER
                 (UTC) (F)     (DEG/KT/KT) (MB)    (FT/S)
N MID LAKE BUOY  1050   46 47  200/ 29/ 35 1000.1F   9/ 7
NORTHPORT PIER   1140   41     170/  8/ 17  999.0F
KEWAUNEE LAKESHO 1130   39     180/ 15/ 18 1000.8F
SHEBOYGAN LAKESH 1100   40     200/ 16/ 18 1004.3F
PORT WASHINGTON  1130   41     190/  6/  9 1005.8F
MILWAUKEE LAKESH 1130   41     230/ 15/ 17   N/A
S MID LAKE BUOY  1050   44 47  220/ 19/ 23 1008.2F   4/ 5
KENOSHA   LAKESH 1100   40     210/  9/ 14 1007.5
$$

TC  - TEMPERATURE IN CELSIUS
VSB - VISIBILITY IN STATUTE MILES
WCI - WIND CHILL INDEX
HX  - HEAT INDEX




USA.gov is the U.S. government's official web portal to all federal, state and local government web resources and services.